Time,TemperatureF,DewpointF,PressureIn,WindDirection,WindDirectionDegrees,WindSpeedMPH,WindSpeedGustMPH,Humidity,HourlyPrecipIn,Conditions,Clouds,dailyrainin,SoftwareType,DateUTC
2015-07-06 00:01:00,78.5,74.6,30.02,SSW,208,3.5,3.5,88,0.00,CLR,,0.00,WeatherDisplay:10.37,2015-07-06 05:01:00,
2015-07-06 00:06:00,78.5,74.6,30.02,SE,141,3.5,3.5,88,0.00,CLR,,0.00,WeatherDisplay:10.37,2015-07-06 05:06:00,
2015-07-06 00:11:00,78.5,74.6,30.02,South,179,3.5,3.5,88,0.00,CLR,,0.00,WeatherDisplay:10.37,2015-07-06 05:11:00,
2015-07-06 00:16:00,78.4,74.5,30.02,SE,129,2.0,2.0,88,0.00,CLR,,0.00,WeatherDisplay:10.37,2015-07-06 05:16:00,
2015-07-06 00:21:00,78.4,74.8,30.02,SSE,158,2.3,2.3,89,0.00,CLR,,0.00,WeatherDisplay:10.37,2015-07-06 05:21:00,
2015-07-06 00:26:00,78.4,74.8,30.01,East,83,3.5,3.5,89,0.00,CLR,,0.00,WeatherDisplay:10.37,2015-07-06 05:26:00,
2015-07-06 00:31:00,78.3,74.7,30.01,SE,135,4.0,4.0,89,0.00,CLR,,0.00,WeatherDisplay:10.37,2015-07-06 05:31:00,
2015-07-06 00:36:00,78.4,74.8,30.00,ESE,105,4.6,4.6,89,0.00,CLR,,0.00,WeatherDisplay:10.37,2015-07-06 05:36:00,
2015-07-06 00:41:00,78.4,74.8,30.00,SSE,158,2.3,2.3,89,0.00,CLR,,0.00,WeatherDisplay:10.37,2015-07-06 05:41:00,
2015-07-06 00:46:00,78.3,74.7,30.01,SSE,154,2.3,2.3,89,0.00,CLR,,0.00,WeatherDisplay:10.37,2015-07-06 05:46:00,
2015-07-06 00:51:00,78.3,74.7,30.00,ESE,115,4.6,4.6,89,0.00,CLR,,0.00,WeatherDisplay:10.37,2015-07-06 05:51:00,
2015-07-06 00:56:00,78.3,74.7,30.00,ESE,121,3.5,3.5,89,0.00,CLR,,0.00,WeatherDisplay:10.37,2015-07-06 05:56:00,
2015-07-06 01:01:00,78.3,74.7,30.00,SE,129,2.3,2.3,89,0.00,CLR,,0.00,WeatherDisplay:10.37,2015-07-06 06:01:00,
2015-07-06 01:06:00,78.3,74.7,30.00,SE,128,5.8,5.8,89,0.00,CLR,,0.00,WeatherDisplay:10.37,2015-07-06 06:06:00,
2015-07-06 01:11:00,78.2,74.7,30.00,SSE,150,3.5,3.5,89,0.00,CLR,,0.00,WeatherDisplay:10.37,2015-07-06 06:11:00,
2015-07-06 01:16:00,78.2,74.7,30.00,ESE,104,3.5,3.5,89,0.00,CLR,,0.00,WeatherDisplay:10.37,2015-07-06 06:16:00,
2015-07-06 01:21:00,78.1,74.6,30.00,SE,142,2.3,2.3,89,0.00,CLR,,0.00,WeatherDisplay:10.37,2015-07-06 06:21:00,
2015-07-06 01:26:00,78.1,74.6,30.00,East,94,4.6,4.6,89,0.00,CLR,,0.00,WeatherDisplay:10.37,2015-07-06 06:26:00,
2015-07-06 01:31:00,78.0,74.8,30.00,SE,135,3.5,3.5,90,0.00,CLR,,0.00,WeatherDisplay:10.37,2015-07-06 06:31:00,
2015-07-06 01:36:00,78.0,74.8,30.00,ESE,120,6.0,6.0,90,0.00,CLR,,0.00,WeatherDisplay:10.37,2015-07-06 06:36:00,
2015-07-06 01:41:00,78.0,74.8,30.00,ESE,108,2.3,2.3,90,0.00,CLR,,0.00,WeatherDisplay:10.37,2015-07-06 06:41:00,
2015-07-06 01:46:00,77.9,74.7,30.00,ENE,78,3.5,3.5,90,0.00,CLR,,0.00,WeatherDisplay:10.37,2015-07-06 06:46:00,
2015-07-06 01:51:00,77.9,74.7,30.00,South,190,2.3,2.3,90,0.00,CLR,,0.00,WeatherDisplay:10.37,2015-07-06 06:51:00,
2015-07-06 01:56:00,77.9,74.7,30.00,SSE,150,3.5,3.5,90,0.00,CLR,,0.00,WeatherDisplay:10.37,2015-07-06 06:56:00,
2015-07-06 02:01:00,77.8,74.6,30.00,ESE,115,4.0,4.0,90,0.00,CLR,,0.00,WeatherDisplay:10.37,2015-07-06 07:01:00,
2015-07-06 02:06:00,77.8,74.6,30.00,SE,128,3.5,3.5,90,0.00,CLR,,0.00,WeatherDisplay:10.37,2015-07-06 07:06:00,
2015-07-06 02:11:00,77.8,74.6,30.00,SE,129,2.3,2.3,90,0.00,CLR,,0.00,WeatherDisplay:10.37,2015-07-06 07:11:00,
2015-07-06 02:16:00,77.7,74.5,30.00,SSE,156,3.5,3.5,90,0.00,CLR,,0.00,WeatherDisplay:10.37,2015-07-06 07:16:00,
2015-07-06 02:21:00,77.6,74.7,29.99,SSE,158,1.2,1.2,91,0.00,CLR,,0.00,WeatherDisplay:10.37,2015-07-06 07:21:00,
2015-07-06 02:26:00,77.5,74.6,30.00,SE,143,2.3,2.3,91,0.00,CLR,,0.00,WeatherDisplay:10.37,2015-07-06 07:26:00,
2015-07-06 02:31:00,77.5,74.6,29.99,SSE,150,2.3,2.3,91,0.00,CLR,,0.00,WeatherDisplay:10.37,2015-07-06 07:31:00,
2015-07-06 02:36:00,77.4,74.5,29.99,SSE,158,2.3,2.3,91,0.00,CLR,,0.00,WeatherDisplay:10.37,2015-07-06 07:36:00,
2015-07-06 02:41:00,77.4,74.5,30.00,SE,134,4.6,4.6,91,0.00,CLR,,0.00,WeatherDisplay:10.37,2015-07-06 07:41:00,
2015-07-06 02:46:00,77.3,74.4,30.00,SE,131,3.5,3.5,91,0.00,CLR,,0.00,WeatherDisplay:10.37,2015-07-06 07:46:00,
2015-07-06 02:51:00,77.3,74.4,29.99,SSE,153,1.2,1.2,91,0.00,CLR,,0.00,WeatherDisplay:10.37,2015-07-06 07:51:00,
2015-07-06 02:56:00,77.2,74.3,29.99,ESE,103,3.5,3.5,91,0.00,CLR,,0.00,WeatherDisplay:10.37,2015-07-06 07:56:00,
2015-07-06 03:01:00,77.2,74.3,29.99,SSE,163,3.5,3.5,91,0.00,CLR,,0.00,WeatherDisplay:10.37,2015-07-06 08:01:00,
2015-07-06 03:06:00,77.2,74.3,29.99,SSE,158,2.3,2.3,91,0.00,CLR,,0.00,WeatherDisplay:10.37,2015-07-06 08:06:00,
2015-07-06 03:11:00,77.2,74.3,29.99,SE,142,2.3,2.3,91,0.00,CLR,,0.00,WeatherDisplay:10.37,2015-07-06 08:11:00,
2015-07-06 03:16:00,77.2,74.3,29.99,SE,140,3.5,3.5,91,0.00,CLR,,0.00,WeatherDisplay:10.37,2015-07-06 08:16:00,
2015-07-06 03:21:00,77.2,74.3,29.99,SSE,149,2.3,2.3,91,0.00,CLR,,0.00,WeatherDisplay:10.37,2015-07-06 08:21:00,
2015-07-06 03:26:00,77.1,74.6,29.99,SSE,148,2.3,2.3,92,0.00,CLR,,0.00,WeatherDisplay:10.37,2015-07-06 08:26:00,
2015-07-06 03:31:00,77.1,74.6,29.99,SE,142,3.5,3.5,92,0.00,CLR,,0.00,WeatherDisplay:10.37,2015-07-06 08:31:00,
2015-07-06 03:36:00,77.1,74.6,29.99,SE,138,2.3,2.3,92,0.00,CLR,,0.00,WeatherDisplay:10.37,2015-07-06 08:36:00,
2015-07-06 03:41:00,77.1,74.6,29.99,SSE,155,2.3,2.3,92,0.00,CLR,,0.00,WeatherDisplay:10.37,2015-07-06 08:41:00,
2015-07-06 03:46:00,77.1,74.6,29.99,SE,141,3.0,3.0,92,0.00,CLR,,0.00,WeatherDisplay:10.37,2015-07-06 08:46:00,
2015-07-06 03:51:00,77.1,74.6,29.99,SE,135,0.0,0.0,92,0.00,CLR,,0.00,WeatherDisplay:10.37,2015-07-06 08:51:00,
2015-07-06 03:56:00,77.1,74.6,29.99,SSE,148,2.3,2.3,92,0.00,CLR,,0.00,WeatherDisplay:10.37,2015-07-06 08:56:00,
2015-07-06 04:01:00,77.1,74.6,29.99,SSE,148,2.3,2.3,92,0.00,CLR,,0.00,WeatherDisplay:10.37,2015-07-06 09:01:00,
2015-07-06 04:06:00,77.0,74.5,29.99,SE,132,3.5,3.5,92,0.00,CLR,,0.00,WeatherDisplay:10.37,2015-07-06 09:06:00,
2015-07-06 04:11:00,77.0,74.5,29.99,SSE,160,3.5,3.5,92,0.00,CLR,,0.00,WeatherDisplay:10.37,2015-07-06 09:11:00,
2015-07-06 04:16:00,77.1,74.6,30.00,SSW,203,2.3,2.3,92,0.00,CLR,,0.00,WeatherDisplay:10.37,2015-07-06 09:16:00,
2015-07-06 04:21:00,77.1,74.6,30.00,South,188,3.5,3.5,92,0.00,CLR,,0.00,WeatherDisplay:10.37,2015-07-06 09:21:00,
2015-07-06 04:26:00,77.0,74.5,30.00,SSE,167,2.0,2.0,92,0.00,CLR,,0.00,WeatherDisplay:10.37,2015-07-06 09:26:00,
2015-07-06 04:31:00,77.0,74.5,30.00,SSE,161,2.3,2.3,92,0.00,CLR,,0.00,WeatherDisplay:10.37,2015-07-06 09:31:00,
2015-07-06 04:36:00,77.0,74.5,29.99,SE,138,1.2,0.0,92,0.00,CLR,,0.00,WeatherDisplay:10.37,2015-07-06 09:36:00,
2015-07-06 04:41:00,77.0,74.5,30.00,SE,140,2.3,2.3,92,0.00,CLR,,0.00,WeatherDisplay:10.37,2015-07-06 09:41:00,
2015-07-06 04:46:00,76.9,74.4,30.00,SSE,148,1.2,1.2,92,0.00,CLR,,0.00,WeatherDisplay:10.37,2015-07-06 09:46:00,